Location: Lourdes
(43.1000°N, 0.0500°W)
Time: 04:50:15
(UTC+00:00)

SL-24 R/B - Pass Details

Date: 30 November 2020
Orbit: 505 x 1002 km, 97.4° (Epoch: 24 January)

Event Time Altitude Azimuth Distance (km) Brightness Sun altitude
Exits shadow 18:30:07 33° 355° (N) 895 4.8 -22.0°
Maximum altitude 18:31:37 65° 285° (WNW) 573 4.0 -22.3°
Drops below altitude 10° 18:35:13 10° 203° (SSW) 1,714 6.7 -22.9°
Sets 18:37:16 0° 201° (SSW) 2,594 7.7 -23.3°
